Home   Weather   Patna   Past weeks
Flag for India

Past Weather in Patna, Bihar, India — Yesterday and Last 2 Weeks

Now
66 °F

Fog.


Feels Like: 66 °F
Forecast: 94 / 69 °F
Wind: No wind

Location: Patna Airport

Current Time: Mar 27, 2019 at 6:06:33 am

Latest Report: Mar 27, 2019 at 5:30 am


Visibility: 2 mi

Pressure: 29.89 "Hg

Humidity: 94%

Dew Point: 64 °F

Location of PatnaLocation

Past Weather in Patna — Graph

°F

Patna Temperature Yesterday

Maximum temperature yesterday: 82 °F (at 3:30 pm)
Minimum temperature yesterday: 68 °F (at 11:00 am)
Average temperature yesterday: 73 °F

High & Low Weather Summary for the Past Weeks

 TemperatureHumidityPressure
High97 °F (Mar 25, 3:00 pm)94% (Mar 27, 5:00 am)30.04 "Hg (Mar 27, 5:00 am)
Low61 °F (Mar 12, 4:30 am)16% (Mar 21, 2:30 pm)29.74 "Hg (Mar 19, 3:30 pm)
Average78 °F46%29.86 "Hg
* Reported Mar 12 4:30 am — Mar 27 5:00 am, Patna. Weather by CustomWeather, © 2019

Note: Actual official high and low records may vary slightly from our data, if they occured in-between our weather recording intervals... More about our weather records

Advertising

Patna Weather History for the Previous 24 Hours

Scroll right to see more
 ConditionsComfort  
Time TempWeatherWind HumidityBarometerVisibility
5:00 am
Wed, Mar 27
66 °FFog.No wind94%29.89 "Hg1 mi
4:30 am68 °FFog.No wind88%29.89 "Hg1 mi
4:00 am68 °FFog.No wind88%29.89 "Hg1 mi
3:30 am68 °FFog.No wind88%29.89 "Hg1 mi
2:30 am68 °FFog.No wind88%29.89 "Hg2 mi
2:00 am68 °FFog.No wind88%29.89 "Hg2 mi
1:30 am68 °FFog.No wind88%29.89 "Hg2 mi
12:30 am68 °FFog.No wind88%29.89 "Hg2 mi
11:30 pm
Tue, Mar 26
70 °FFog.2 mph83%29.92 "Hg2 mi
11:00 pm70 °FFog.2 mph83%29.92 "Hg2 mi
10:30 pm70 °FFog.2 mph83%29.92 "Hg2 mi
10:00 pm70 °FFog.No wind83%29.92 "Hg2 mi
9:30 pm72 °FHaze.No wind78%29.92 "Hg2 mi
9:00 pm73 °FHaze.No wind74%29.92 "Hg2 mi
8:30 pm73 °FHaze.No wind74%29.92 "Hg3 mi
8:00 pm73 °FHaze.No wind69%29.89 "Hg3 mi
7:30 pm75 °FHaze.2 mph61%29.89 "Hg3 mi
7:00 pm77 °FHaze.2 mph57%29.86 "Hg3 mi
6:30 pm77 °FHaze.3 mph57%29.86 "Hg3 mi
5:30 pm81 °FHaze.5 mph51%29.83 "Hg3 mi
5:00 pm82 °FHaze.3 mph48%29.83 "Hg3 mi
4:30 pm82 °FHaze.7 mph48%29.83 "Hg3 mi
4:00 pm82 °FHaze.5 mph45%29.83 "Hg3 mi
3:30 pm82 °FHaze.5 mph45%29.83 "Hg3 mi
3:00 pm81 °FHaze.6 mph48%29.83 "Hg3 mi
2:30 pm79 °FScattered clouds.7 mph51%29.86 "Hg3 mi
2:00 pm79 °FBroken clouds.7 mph48%29.86 "Hg3 mi
1:30 pm75 °FBroken clouds.6 mph57%29.89 "Hg3 mi
1:00 pm73 °FBroken clouds.9 mph61%29.89 "Hg3 mi
12:30 pm70 °FBroken clouds.14 mph73%29.89 "Hg3 mi
12:00 pm72 °FBroken clouds.12 mph69%29.92 "Hg3 mi
11:30 am70 °FBroken clouds.12 mph78%29.92 "Hg3 mi
11:00 am68 °FDrizzle. Broken clouds.10 mph83%29.98 "Hg2 mi
10:30 am70 °FBroken clouds.6 mph73%30.04 "Hg2 mi
10:00 am70 °FLight rain. Broken clouds.6 mph78%30.04 "Hg2 mi
9:30 am72 °FBroken clouds.5 mph69%30.01 "Hg2 mi
9:00 am70 °FLight rain. Broken clouds.6 mph73%29.98 "Hg2 mi
8:30 am72 °FLight rain. Broken clouds.12 mph65%30.01 "Hg2 mi
8:00 am72 °FDrizzle. Broken clouds.14 mph65%30.01 "Hg1 mi
7:30 am70 °FBroken clouds.5 mph73%29.98 "Hg1 mi
7:00 am70 °FThunderstorms. Broken clouds.21 mph73%29.98 "Hg1 mi
6:30 am72 °FScattered clouds.3 mph65%29.89 "Hg2 mi
6:00 am72 °FPassing clouds.5 mph65%29.89 "Hg1 mi
Weather by CustomWeather, © 2019

See weather overview